Skip Page Navigation
NASA JPL Caltech
NASA Logo - Jet Propulsion Laboratory + View the NASA Portal
+ Center for Near-Earth Object Studies
JPL Home Earth Solar System Stars & Galaxies Technology
JPL Solar System Dynamics
BODIES ORBITS EPHEMERIDES TOOLS PHYSICAL DATA DISCOVERY FAQ SITE MAP
IMPORTANT: The SSD Announcement email list is now available. Major changes are coming in the near future, including possible hostname and/or URL changes. To be notified of such changes, subscribe to this email list.

Please visit this page for more details.


JPL Small-Body Database Browser
Search: [ help ]  
215013 (2008 GX67)
Classification: Main-belt Asteroid          SPK-ID: 2215013
Ephemeris | Orbit Diagram | Orbital Elements | Mission Design | Physical Parameters | Discovery Circumstances ]

[ show orbit diagram ]
Orbital Elements at Epoch 2458600.5 (2019-Apr-27.0) TDB
Reference: JPL 14 (heliocentric ecliptic J2000)
 Element Value Uncertainty (1-sigma)   Units 
e .1968531215054291 4.687e-08  
a 2.713119702249082 2.092e-08 au
q 2.17903361984347 1.2916e-07 au
i 11.8384647615828 6.793e-06 deg
node 14.52452539496253 2.5851e-05 deg
peri 259.7121166910613 3.2256e-05 deg
M 116.4735594108156 2.2239e-05 deg
tp 2458072.387184481314
(2017-Nov-14.88718448)
9.9278e-05 TDB
period 1632.307062207568
4.47
1.8879e-05
5.169e-08
d
yr
n .2205467392349133 2.5508e-09 deg/d
Q 3.247205784654694 2.5038e-08 au
  Orbit Determination Parameters
   # obs. used (total)      312  
   data-arc span      21260 days (58.21 yr)  
   first obs. used      1960-09-29  
   last obs. used      2018-12-14  
   planetary ephem.      DE431  
   SB-pert. ephem.      SB431-N16  
   condition code      0  
   norm. resid. RMS      .53381  
   source      ORB  
   producer      Otto Matic  
   solution date      2019-Jul-14 10:36:13  

Additional Information
 Earth MOID = 1.20063 au 
 Jupiter MOID = 2.01311 au 
 T_jup = 3.304 
[ show covariance matrix ]

Ephemeris | Orbit Diagram | Orbital Elements | Mission Design | Physical Parameters | Discovery Circumstances ]

Physical Parameter Table
Parameter Symbol Value Units Sigma Reference Notes
absolute magnitude H 15.8   n/a MPO459959  

215013 (2008 GX67)          Discovered 2008-Apr-06 by LINEAR at Socorro
Reference: 20090509/Numbers.arcLast Updated: 2009-05-11
Ephemeris | Orbit Diagram | Orbital Elements | Mission Design | Physical Parameters | Discovery Circumstances ]
ABOUT SSD CREDITS/AWARDS PRIVACY/COPYRIGHT GLOSSARY LINKS
FirstGov 2019-Dec-11 20:42 UT
(server date/time)  
NASA Home Page
Site Manager:   Ryan S. Park
Webmaster  Alan B. Chamberlin